QPF
0.00 0.00 0.00 0.00 0.00 0.00 0.00 0.00 0.00 0.00 0.00 0.00 0.00 0.00 0.00 0.00 0.00 0.00 0.00 0.00 0.00 0.00 0.00 0.00 0.00 0.00 0.00 0.00 0.00 0.00 0.00 0.00 0.00 0.00 0.00 0.00 0.00 0.00 0.00 0.00 0.00 0.00
0.00 0.00 0.00 0.00 0.00 0.00 0.00 0.00 0.00 0.00 0.00 0.00 0.00 0.00 0.00 0.00 0.00 0.00 0.00 0.00 0.00 0.00 0.00 0.00 0.00 0.00 0.00 0.00 0.00 0.00 0.00 0.00 0.00 0.00 0.00 0.00 0.00 0.00 0.00 0.00 0.00 0.00
0.00 0.00 0.00 0.00 0.00 0.00 0.00 0.00 0.00 0.00 0.00 0.00 0.00 0.00 0.00 0.00 0.00 0.00 0.00 0.00 0.00 0.00 0.00 0.00 0.00 0.00 0.00 0.00 0.00 0.00 0.00 0.00 0.00 0.00 0.00 0.00 0.00 0.00 0.00 0.00 0.00 0.00
0.00 0.00 0.00 0.00 0.00 0.00 0.00 0.00 0.00 0.00 0.00 0.00 0.00 0.00 0.00 0.00 0.00 0.00 0.00 0.00 0.00 0.00 0.00 0.00 0.00 0.00 0.00 0.00 0.00 0.00 0.00 0.00 0.00 0.00 0.00 0.00 0.00 0.00 0.00 0.00 0.00 0.00
0.00 0.00 0.00 0.00 0.00 0.00 0.00 0.00 0.00 0.00 0.00 0.00 0.00 0.00 0.00 0.00 0.00 0.00 0.00 0.00 0.00 0.00 0.00 0.00 0.00 0.00 0.00 0.00 0.00 0.00 0.00 0.00 0.00 0.00 0.00 0.00 0.00 0.00 0.00 0.00 0.00 0.00
0.00 0.00 0.00 0.00 0.00 0.00 0.00 0.00 0.00 0.00 0.00 0.00 0.00 0.00 0.00 0.00 0.00 0.00 0.00 0.00 0.00 0.00 0.00 0.00 0.00 0.00 0.00 0.00 0.00 0.00 0.00 0.00 0.00 0.00 0.00 0.00 0.00 0.00 0.00 0.00 0.00 0.00
0.00 0.00 0.00 0.00 0.00 0.00 0.00 0.00 0.00 0.00 0.00 0.00 0.00 0.00 0.00 0.00 0.00 0.00 0.00 0.00 0.00 0.00 0.00 0.00 0.00 0.00 0.00 0.00 0.00 0.00 0.00 0.00 0.00 0.00 0.00 0.00 0.00 0.00 0.00 0.00 0.00 0.00
0.00 0.00 0.00 0.00 0.00 0.00 0.00 0.00 0.00 0.00 0.00 0.00 0.00 0.00 0.00 0.00 0.00 0.00 0.00 0.00 0.00 0.00 0.00 0.00 0.00 0.00 0.00 0.00 0.00 0.00 0.00 0.00 0.00 0.00 0.00 0.00 0.00 0.00 0.00 0.00 0.00 0.00
0.00 0.00 0.00 0.00 0.00 0.00 0.00 0.00 0.00 0.00 0.00 0.00 0.00 0.00 0.00 0.00 0.00 0.00 0.00 0.00 0.00 0.00 0.00 0.00 0.00 0.00 0.00 0.00 0.00 0.00 0.00 0.00 0.00 0.00 0.00 0.00 0.00 0.00 0.00 0.00 0.00 0.00
0.00 0.00 0.00 0.00 0.00 0.00 0.00 0.00 0.00 0.00 0.00 0.00 0.00 0.00 0.00 0.00 0.00 0.00 0.00 0.00 0.00 0.00 0.00 0.00 0.00 0.00 0.00 0.00 0.00 0.00 0.00 0.00 0.00 0.00 0.00 0.00 0.00 0.00 0.00 0.00 0.00 0.00
0.00 0.00 0.00 0.00 0.00 0.00 0.00 0.00 0.00 0.00 0.00 0.00 0.00 0.00 0.00 0.00 0.00 0.00 0.00 0.00 0.00 0.00 0.00 0.00 0.00 0.00 0.00 0.00 0.00 0.00 0.00 0.02 0.01 0.00 0.00 0.00 0.00 0.00 0.00 0.00 0.00 0.00
0.00 0.00 0.00 0.00 0.00 0.00 0.00 0.00 0.00 0.00 0.00 0.00 0.00 0.00 0.00 0.00 0.00 0.00 0.00 0.00 0.00 0.00 0.00 0.00 0.00 0.00 0.00 0.01 0.00 0.01 0.00 0.02 0.02 0.00 0.00 0.00 0.00 0.00 0.00 0.00 0.00 0.00
0.00 0.00 0.00 0.00 0.00 0.00 0.00 0.00 0.00 0.00 0.00 0.00 0.00 0.00 0.00 0.00 0.00 0.00 0.00 0.00 0.00 0.00 0.00 0.00 0.01 0.00 0.07 0.05 0.04 0.01 0.00 0.00 0.00 0.00 0.00 0.00 0.00 0.00 0.00 0.00 0.00 0.00
0.00 0.00 0.00 0.00 0.00 0.00 0.00 0.00 0.00 0.00 0.00 0.00 0.00 0.00 0.00 0.00 0.00 0.00 0.00 0.00 0.00 0.00 0.00 0.00 0.03 0.11 0.12 0.00 0.05 0.02 0.01 0.00 0.00 0.00 0.00 0.00 0.00 0.00 0.00 0.00 0.00 0.00
0.00 0.00 0.00 0.00 0.00 0.00 0.00 0.00 0.00 0.00 0.00 0.00 0.00 0.00 0.00 0.00 0.00 0.00 0.02 0.02 0.00 0.00 0.02 0.05 0.11 0.04 0.02 0.01 0.02 0.00 0.00 0.00 0.00 0.00 0.00 0.00 0.00 0.00 0.00 0.00 0.00 0.00
0.00 0.00 0.00 0.00 0.00 0.00 0.00 0.00 0.00 0.00 0.00 0.00 0.00 0.00 0.00 0.00 0.00 0.01 0.00 0.00 0.00 0.00 0.01 0.04 0.13 0.09 0.03 0.01 0.00 0.01 0.00 0.00 0.00 0.00 0.00 0.00 0.00 0.00 0.00 0.00 0.00 0.00
0.00 0.00 0.00 0.00 0.00 0.00 0.00 0.00 0.00 0.00 0.00 0.00 0.01 0.00 0.00 0.00 0.00 0.00 0.00 0.00 0.00 0.04 0.05 0.01 0.07 0.09 0.08 0.00 0.00 0.00 0.00 0.00 0.00 0.00 0.00 0.00 0.00 0.00 0.00 0.00 0.00 0.00
0.01 0.01 0.12 0.03 0.01 0.02 0.00 0.00 0.01 0.00 0.00 0.00 0.00 0.00 0.01 0.00 0.00 0.00 0.00 0.00 0.00 0.03 0.01 0.01 0.01 0.00 0.01 0.05 0.01 0.01 0.00 0.03 0.01 0.00 0.00 0.00 0.00 0.00 0.00 0.00 0.00 0.00
0.00 0.00 0.00 0.00 0.00 0.00 0.01 0.00 0.00 0.00 0.01 0.00 0.01 0.01 0.00 0.00 0.00 0.00 0.00 0.02 0.01 0.02 0.00 0.00 0.00 0.00 0.00 0.00 0.00 0.00 0.00 0.08 0.06 0.00 0.01 0.00 0.00 0.00 0.00 0.01 0.00 0.00
0.00 0.00 0.00 0.00 0.00 0.00 0.00 0.01 0.01 0.02 0.02 0.02 0.02 0.00 0.00 0.00 0.00 0.00 0.09 0.04 0.01 0.01 0.00 0.00 0.00 0.00 0.01 0.01 0.00 0.00 0.00 0.05 0.06 0.00 0.02 0.00 0.00 0.00 0.00 0.00 0.00 0.00
0.00 0.00 0.00 0.00 0.01 0.00 0.00 0.01 0.01 0.03 0.02 0.00 0.00 0.01 0.00 0.01 0.00 0.00 0.00 0.05 0.02 0.00 0.00 0.00 0.00 0.00 0.00 0.00 0.00 0.00 0.00 0.01 0.11 0.05 0.04 0.00 0.00 0.00 0.00 0.00 0.00 0.00
0.00 0.00 0.00 0.00 0.00 0.00 0.00 0.00 0.00 0.01 0.01 0.05 0.00 0.00 0.00 0.00 0.04 0.08 0.01 0.00 0.00 0.00 0.00 0.02 0.00 0.00 0.00 0.01 0.00 0.00 0.00 0.05 0.02 0.00 0.03 0.03 0.04 0.03 0.00 0.00 0.00 0.00
0.00 0.00 0.00 0.00 0.00 0.00 0.00 0.00 0.00 0.00 0.00 0.00 0.00 0.00 0.00 0.00 0.00 0.00 0.03 0.04 0.00 0.00 0.00 0.11 0.09 0.00 0.00 0.00 0.00 0.00 0.01 0.04 0.02 0.05 0.05 0.04 0.01 0.00 0.00 0.00 0.00 0.00
0.00 0.00 0.00 0.00 0.00 0.00 0.00 0.00 0.00 0.00 0.00 0.00 0.00 0.00 0.00 0.01 0.01 0.00 0.02 0.03 0.02 0.11 0.04 0.03 0.01 0.00 0.00 0.00 0.00 0.00 0.04 0.00 0.04 0.01 0.00 0.02 0.00 0.00 0.05 0.00 0.00 0.00
0.00 0.00 0.00 0.00 0.00 0.00 0.00 0.00 0.00 0.00 0.00 0.00 0.01 0.01 0.01 0.01 0.01 0.02 0.03 0.05 0.16 0.03 0.00 0.02 0.02 0.00 0.00 0.00 0.00 0.00 0.02 0.03 0.01 0.01 0.00 0.00 0.01 0.04 0.02 0.00 0.00 0.00
0.00 0.00 0.00 0.00 0.00 0.00 0.00 0.00 0.00 0.00 0.00 0.01 0.01 0.01 0.01 0.02 0.02 0.01 0.02 0.03 0.02 0.02 0.03 0.02 0.00 0.00 0.00 0.00 0.00 0.00 0.01 0.03 0.00 0.03 0.01 0.02 0.03 0.01 0.01 0.00 0.00 0.00
MSLP
1011.56 1011.52 1011.56 1011.68 1011.76 1011.72 1011.76 1011.72 1011.68 1011.72 1011.76 1011.76 1011.92 1011.88 1011.84 1011.68 1011.64 1011.76 1011.84 1011.80 1011.88 1011.96 1011.96 1011.92 1011.92 1011.96 1011.96 1011.92 1011.80 1011.72 1011.76 1011.68 1011.52 1011.40 1011.40 1011.48 1011.44 1011.32 1011.28 1011.28 1011.32 1011.36
1011.48 1011.52 1011.48 1011.44 1011.48 1011.48 1011.52 1011.64 1011.72 1011.68 1011.56 1011.56 1011.64 1011.64 1011.60 1011.64 1011.60 1011.60 1011.68 1011.76 1011.80 1011.84 1011.80 1011.84 1011.88 1011.88 1011.92 1011.92 1011.84 1011.84 1011.80 1011.64 1011.64 1011.28 1011.44 1011.56 1011.40 1011.28 1011.32 1011.32 1011.36 1011.32
1011.36 1011.44 1011.48 1011.56 1011.56 1011.48 1011.44 1011.40 1011.48 1011.52 1011.52 1011.40 1011.32 1011.40 1011.48 1011.48 1011.56 1011.52 1011.60 1011.68 1011.72 1011.80 1011.80 1011.72 1011.72 1011.76 1011.80 1011.76 1011.72 1011.76 1011.76 1011.64 1011.60 1011.36 1011.40 1011.52 1011.40 1011.36 1011.36 1011.36 1011.36 1011.32
1011.24 1011.24 1011.28 1011.28 1011.32 1011.36 1011.20 1011.28 1011.36 1011.44 1011.44 1011.52 1011.48 1011.40 1011.40 1011.44 1011.48 1011.52 1011.52 1011.56 1011.64 1011.68 1011.64 1011.56 1011.56 1011.60 1011.64 1011.64 1011.64 1011.64 1011.60 1011.56 1011.48 1011.32 1011.44 1011.40 1011.32 1011.32 1011.36 1011.36 1011.32 1011.28
1011.08 1011.12 1011.12 1011.08 1011.00 1011.04 1011.08 1011.12 1011.08 1011.12 1011.28 1011.28 1011.28 1011.24 1011.28 1011.32 1011.40 1011.44 1011.44 1011.44 1011.48 1011.52 1011.48 1011.48 1011.40 1011.44 1011.48 1011.48 1011.44 1011.48 1011.44 1011.44 1011.36 1011.36 1011.44 1011.40 1011.32 1011.36 1011.32 1011.32 1011.32 1011.32
1010.76 1010.84 1010.88 1010.92 1010.92 1010.92 1011.00 1011.04 1010.96 1010.84 1010.76 1010.88 1010.96 1011.00 1011.12 1011.16 1011.20 1011.24 1011.24 1011.28 1011.24 1011.28 1011.32 1011.28 1011.28 1011.32 1011.36 1011.44 1011.40 1011.36 1011.32 1011.32 1011.28 1011.36 1011.40 1011.36 1011.36 1011.32 1011.28 1011.24 1011.32 1011.32
1010.52 1010.64 1010.68 1010.68 1010.72 1010.72 1010.80 1010.80 1010.72 1010.68 1010.64 1010.64 1010.64 1010.80 1010.84 1011.04 1011.08 1011.04 1011.04 1011.04 1011.04 1011.08 1011.12 1011.12 1011.16 1011.20 1011.16 1011.28 1011.40 1011.40 1011.24 1011.20 1011.28 1011.40 1011.40 1011.32 1011.36 1011.36 1011.24 1011.24 1011.28 1011.24
1010.20 1010.32 1010.44 1010.48 1010.56 1010.56 1010.64 1010.64 1010.60 1010.60 1010.60 1010.64 1010.80 1010.76 1010.72 1010.76 1010.80 1010.76 1010.72 1010.72 1010.84 1010.88 1010.88 1010.88 1010.92 1010.96 1011.00 1011.16 1011.32 1011.28 1011.20 1011.12 1011.32 1011.44 1011.44 1011.40 1011.36 1011.36 1011.32 1011.28 1011.24 1011.16
1010.04 1010.20 1010.24 1010.36 1010.44 1010.48 1010.52 1010.48 1010.44 1010.44 1010.40 1010.56 1010.64 1010.64 1010.56 1010.56 1010.56 1010.52 1010.52 1010.52 1010.52 1010.56 1010.64 1010.72 1010.72 1010.84 1010.92 1011.12 1011.24 1011.20 1011.16 1011.12 1011.20 1011.28 1011.36 1011.36 1011.32 1011.32 1011.32 1011.32 1011.20 1011.16
1009.96 1010.04 1010.16 1010.20 1010.32 1010.32 1010.36 1010.32 1010.24 1010.24 1010.16 1010.28 1010.28 1010.28 1010.36 1010.28 1010.24 1010.28 1010.32 1010.32 1010.36 1010.40 1010.40 1010.48 1010.52 1010.60 1010.72 1010.88 1011.04 1011.16 1011.24 1011.24 1011.08 1011.04 1011.08 1011.12 1011.16 1011.20 1011.24 1011.28 1011.24 1011.20
1009.84 1009.88 1010.00 1010.04 1010.04 1010.04 1010.08 1010.08 1010.08 1010.08 1010.08 1010.08 1010.04 1010.08 1010.08 1010.08 1010.08 1009.96 1010.04 1010.08 1010.16 1010.12 1010.16 1010.24 1010.32 1010.36 1010.56 1010.76 1010.92 1011.00 1011.12 1011.40 1011.24 1011.08 1011.04 1011.08 1011.04 1011.08 1011.16 1011.20 1011.24 1011.20
1009.64 1009.68 1009.76 1009.80 1009.84 1009.84 1009.84 1009.84 1009.84 1009.84 1009.88 1009.84 1009.84 1009.88 1009.84 1009.80 1009.88 1009.84 1009.80 1009.84 1009.84 1009.84 1009.84 1009.92 1010.04 1010.16 1010.40 1010.64 1010.88 1011.00 1011.00 1011.08 1011.32 1011.24 1011.00 1010.96 1010.92 1011.00 1011.08 1011.12 1011.16 1011.12
1009.36 1009.44 1009.48 1009.52 1009.56 1009.56 1009.60 1009.64 1009.64 1009.60 1009.60 1009.60 1009.48 1009.56 1009.64 1009.68 1009.64 1009.72 1009.72 1009.84 1009.76 1009.64 1009.72 1009.80 1009.84 1010.16 1010.68 1010.72 1010.88 1011.00 1011.12 1010.92 1010.88 1010.88 1010.84 1010.76 1010.76 1010.84 1010.92 1010.96 1011.00 1011.00
1009.04 1009.08 1009.20 1009.24 1009.28 1009.36 1009.44 1009.40 1009.36 1009.36 1009.32 1009.28 1009.24 1009.28 1009.32 1009.32 1009.36 1009.40 1009.40 1009.44 1009.48 1009.52 1009.56 1009.76 1010.12 1010.56 1010.72 1010.68 1010.72 1010.92 1011.16 1010.80 1010.72 1010.80 1010.76 1010.68 1010.64 1010.72 1010.76 1010.84 1010.84 1010.76
1008.72 1008.72 1008.76 1008.84 1008.88 1009.04 1009.16 1009.24 1009.20 1009.16 1009.04 1009.00 1009.00 1009.04 1009.00 1009.00 1008.96 1008.96 1009.12 1009.36 1009.40 1009.20 1009.28 1009.56 1010.04 1010.24 1010.60 1010.56 1010.64 1010.72 1010.76 1010.80 1010.80 1010.84 1010.76 1010.64 1010.56 1010.60 1010.60 1010.64 1010.64 1010.64
1008.48 1008.44 1008.44 1008.40 1008.52 1008.60 1008.64 1008.68 1008.76 1008.80 1008.84 1008.88 1008.84 1008.72 1008.68 1008.68 1008.72 1008.76 1009.00 1009.08 1009.04 1009.04 1009.12 1009.40 1009.84 1010.08 1010.32 1010.40 1010.52 1010.60 1010.64 1010.84 1011.08 1011.12 1010.80 1010.64 1010.60 1010.56 1010.60 1010.56 1010.52 1010.48
1008.48 1008.32 1008.24 1008.36 1008.36 1008.24 1008.32 1008.36 1008.36 1008.44 1008.56 1008.60 1008.56 1008.52 1008.60 1008.60 1008.64 1008.72 1008.84 1008.92 1008.92 1008.96 1009.24 1009.40 1009.72 1010.00 1010.32 1010.44 1010.52 1010.56 1010.60 1010.96 1011.20 1011.12 1010.96 1010.76 1010.60 1010.56 1010.60 1010.48 1010.40 1010.36
1008.28 1008.12 1008.68 1008.68 1008.28 1008.16 1008.16 1008.00 1008.12 1008.20 1008.24 1008.24 1008.24 1008.28 1008.32 1008.40 1008.52 1008.60 1008.68 1008.76 1008.80 1008.92 1009.24 1009.56 1009.60 1009.84 1010.08 1010.44 1010.52 1010.72 1010.96 1011.08 1011.24 1011.08 1011.08 1010.92 1010.76 1010.68 1010.60 1010.44 1010.40 1010.44
1007.76 1007.76 1007.72 1007.80 1007.76 1007.72 1007.80 1007.84 1007.96 1008.04 1008.00 1007.96 1008.04 1007.92 1007.96 1008.20 1008.32 1008.40 1008.48 1008.44 1008.52 1008.72 1009.12 1009.28 1009.32 1009.56 1009.92 1010.12 1010.28 1010.48 1010.76 1011.04 1011.44 1011.60 1011.64 1011.20 1011.04 1010.72 1010.56 1010.48 1010.52 1010.52
1007.60 1007.64 1007.64 1007.64 1007.56 1007.52 1007.52 1007.60 1007.72 1007.80 1007.68 1007.64 1007.72 1007.72 1007.84 1007.96 1007.96 1008.04 1008.00 1008.04 1008.08 1008.36 1008.64 1008.80 1008.92 1009.40 1009.80 1010.00 1010.20 1010.36 1010.60 1010.80 1011.08 1011.44 1011.64 1011.40 1011.20 1010.80 1010.48 1010.44 1010.48 1010.56
1007.52 1007.48 1007.52 1007.40 1007.32 1007.32 1007.36 1007.44 1007.48 1007.48 1007.48 1007.44 1007.52 1007.64 1007.68 1007.76 1007.80 1007.80 1007.72 1007.68 1007.80 1008.12 1008.40 1008.56 1008.64 1009.16 1009.52 1009.80 1010.12 1010.44 1010.76 1010.84 1010.96 1011.12 1011.60 1011.52 1011.20 1010.92 1010.56 1010.48 1010.60 1010.60
1007.64 1007.60 1007.56 1007.44 1007.40 1007.36 1007.44 1007.44 1007.40 1007.40 1007.48 1007.40 1007.44 1007.44 1007.40 1007.40 1007.44 1007.48 1007.56 1007.60 1007.68 1007.96 1008.28 1008.40 1008.44 1008.88 1009.32 1009.76 1010.08 1010.48 1010.76 1010.92 1010.96 1010.96 1011.12 1011.24 1011.28 1011.04 1010.52 1010.52 1010.64 1010.72
1007.88 1007.88 1007.80 1007.72 1007.64 1007.68 1007.72 1007.72 1007.72 1007.64 1007.48 1007.28 1007.40 1007.44 1007.48 1007.44 1007.36 1007.28 1007.24 1007.40 1007.64 1007.80 1008.00 1008.08 1008.24 1008.68 1009.08 1009.48 1009.88 1010.28 1010.60 1010.84 1010.80 1010.84 1010.88 1011.04 1011.04 1010.76 1010.48 1010.52 1010.60 1010.72
1008.00 1007.96 1008.00 1008.08 1008.08 1008.08 1008.04 1008.00 1007.80 1007.60 1007.52 1007.32 1007.40 1007.36 1007.36 1007.24 1007.16 1007.08 1006.96 1007.08 1007.40 1007.68 1007.68 1007.80 1007.84 1008.36 1008.80 1009.24 1009.64 1010.00 1010.16 1010.40 1010.52 1010.68 1010.64 1010.60 1010.60 1010.56 1010.72 1010.64 1010.76 1010.92
1008.24 1008.36 1008.44 1008.48 1008.48 1008.40 1008.24 1008.12 1007.96 1007.84 1007.64 1007.44 1007.32 1007.20 1007.04 1006.84 1006.76 1006.80 1006.76 1006.76 1006.92 1007.16 1007.24 1007.40 1007.48 1008.04 1008.48 1008.88 1009.32 1009.56 1009.84 1009.96 1010.16 1010.28 1010.36 1010.24 1010.24 1010.28 1010.44 1010.76 1011.04 1011.08
1008.48 1008.64 1008.64 1008.68 1008.64 1008.40 1008.20 1008.20 1008.08 1007.96 1007.80 1007.64 1007.44 1007.16 1006.92 1006.72 1006.64 1006.68 1006.72 1006.68 1006.68 1006.80 1006.92 1007.00 1007.20 1007.72 1008.40 1008.88 1009.12 1009.32 1009.44 1009.52 1009.80 1009.96 1010.04 1010.00 1009.92 1010.08 1010.28 1010.68 1011.00 1011.28
Thickness
5670 5668 5666 5664 5661 5659 5658 5656 5655 5652 5650 5648 5645 5643 5642 5640 5638 5636 5633 5630 5627 5624 5622 5620 5617 5614 5612 5610 5608 5606 5603 5601 5599 5597 5593 5589 5587 5585 5581 5578 5574 5569
5670 5669 5666 5664 5662 5660 5658 5656 5654 5652 5650 5648 5647 5644 5642 5640 5638 5635 5633 5630 5627 5624 5622 5619 5617 5614 5611 5609 5607 5604 5602 5599 5597 5595 5592 5587 5585 5583 5579 5575 5571 5567
5670 5668 5666 5664 5662 5660 5658 5656 5654 5652 5650 5648 5647 5644 5642 5639 5637 5635 5632 5629 5626 5623 5621 5619 5616 5613 5610 5608 5605 5603 5600 5597 5595 5594 5590 5585 5583 5580 5577 5573 5570 5566
5671 5669 5667 5664 5663 5660 5659 5657 5654 5651 5649 5647 5645 5643 5641 5639 5636 5634 5631 5628 5626 5623 5620 5618 5615 5612 5610 5607 5604 5602 5599 5596 5594 5592 5587 5584 5582 5578 5575 5571 5568 5564
5672 5669 5667 5665 5663 5661 5659 5657 5654 5653 5650 5647 5644 5642 5640 5638 5634 5632 5630 5627 5625 5622 5619 5617 5614 5612 5609 5606 5604 5601 5598 5595 5592 5590 5585 5582 5579 5576 5573 5570 5566 5562
5673 5670 5668 5666 5664 5662 5659 5657 5655 5654 5651 5648 5646 5643 5640 5637 5634 5632 5629 5626 5625 5621 5619 5617 5614 5611 5608 5605 5602 5599 5596 5594 5591 5587 5583 5580 5577 5574 5571 5568 5564 5561
5674 5671 5669 5666 5664 5662 5660 5657 5656 5654 5652 5649 5646 5643 5641 5637 5634 5632 5629 5626 5624 5621 5619 5616 5613 5611 5608 5604 5599 5596 5595 5592 5589 5585 5581 5578 5575 5571 5569 5566 5562 5559
5675 5672 5669 5667 5664 5662 5660 5658 5655 5653 5651 5648 5645 5643 5641 5638 5635 5633 5630 5627 5624 5621 5619 5616 5612 5610 5606 5603 5598 5595 5593 5590 5587 5583 5579 5576 5573 5569 5566 5563 5560 5557
5675 5673 5670 5667 5664 5662 5659 5657 5656 5654 5651 5648 5645 5642 5640 5637 5635 5632 5629 5627 5624 5621 5618 5615 5612 5609 5605 5601 5597 5593 5591 5589 5586 5582 5578 5575 5571 5568 5564 5561 5558 5556
5675 5673 5670 5667 5665 5662 5660 5657 5655 5654 5651 5648 5646 5643 5640 5638 5636 5633 5629 5626 5624 5621 5618 5615 5612 5609 5604 5600 5596 5592 5588 5585 5583 5581 5578 5574 5570 5566 5563 5560 5557 5554
5675 5673 5670 5668 5665 5663 5661 5658 5655 5653 5651 5649 5646 5643 5640 5638 5636 5633 5630 5626 5623 5621 5618 5614 5611 5608 5604 5599 5595 5591 5587 5582 5579 5578 5576 5572 5569 5565 5561 5558 5555 5552
5676 5674 5671 5668 5666 5664 5661 5659 5656 5654 5651 5649 5646 5643 5640 5637 5635 5632 5629 5626 5623 5620 5617 5614 5612 5607 5602 5597 5593 5589 5585 5581 5578 5576 5574 5571 5567 5563 5560 5557 5554 5551
5677 5674 5672 5669 5667 5665 5662 5660 5657 5655 5652 5650 5647 5644 5640 5637 5634 5631 5628 5624 5621 5619 5615 5613 5610 5604 5597 5594 5590 5586 5582 5580 5577 5575 5573 5570 5566 5562 5558 5556 5553 5550
5679 5676 5674 5671 5668 5666 5663 5660 5658 5655 5653 5651 5648 5645 5641 5637 5634 5631 5629 5625 5621 5618 5614 5611 5607 5600 5594 5590 5588 5584 5580 5578 5576 5573 5571 5569 5565 5561 5558 5555 5553 5550
5680 5678 5676 5673 5671 5667 5664 5661 5658 5656 5654 5651 5648 5645 5641 5638 5634 5631 5628 5623 5619 5617 5614 5610 5605 5599 5593 5588 5585 5582 5578 5575 5572 5569 5568 5566 5563 5561 5557 5555 5552 5549
5681 5679 5677 5674 5672 5669 5666 5663 5660 5656 5653 5650 5647 5645 5641 5638 5634 5630 5625 5621 5617 5614 5611 5608 5603 5598 5592 5586 5583 5580 5576 5572 5568 5565 5564 5563 5561 5559 5556 5553 5552 5549
5680 5678 5675 5672 5671 5669 5666 5664 5661 5657 5654 5650 5646 5643 5640 5636 5632 5627 5623 5619 5616 5612 5607 5603 5599 5594 5588 5583 5579 5577 5573 5569 5564 5561 5560 5559 5557 5556 5553 5552 5550 5548
5680 5678 5674 5670 5670 5668 5665 5663 5659 5656 5652 5649 5646 5643 5638 5634 5630 5625 5622 5618 5615 5610 5604 5599 5596 5591 5584 5579 5575 5572 5568 5565 5561 5557 5555 5554 5553 5552 5550 5548 5547 5544
5680 5678 5675 5671 5671 5668 5665 5662 5658 5653 5651 5647 5644 5641 5637 5632 5628 5624 5621 5617 5614 5608 5601 5596 5593 5588 5582 5577 5573 5570 5566 5563 5558 5552 5550 5549 5548 5548 5547 5545 5543 5540
5679 5677 5675 5672 5670 5667 5664 5661 5656 5652 5649 5645 5642 5639 5634 5629 5625 5621 5619 5616 5613 5607 5600 5596 5591 5585 5579 5574 5570 5566 5563 5560 5555 5550 5545 5544 5544 5544 5543 5542 5539 5537
5678 5676 5674 5671 5669 5666 5663 5659 5655 5651 5647 5643 5639 5635 5630 5627 5622 5618 5615 5613 5610 5605 5598 5594 5589 5582 5576 5570 5566 5562 5558 5555 5552 5548 5543 5541 5540 5540 5539 5537 5535 5533
5674 5672 5670 5668 5665 5662 5657 5654 5650 5647 5643 5639 5636 5631 5627 5624 5620 5616 5612 5609 5606 5601 5595 5591 5586 5580 5574 5568 5562 5557 5553 5550 5548 5545 5541 5538 5536 5536 5536 5534 5531 5529
5669 5667 5665 5662 5659 5656 5652 5648 5644 5641 5638 5636 5632 5628 5625 5621 5617 5614 5611 5606 5602 5598 5593 5589 5585 5578 5572 5565 5560 5555 5550 5547 5543 5541 5538 5535 5533 5533 5533 5530 5526 5525
5665 5662 5659 5655 5652 5649 5646 5643 5641 5637 5635 5633 5629 5625 5622 5618 5615 5613 5609 5605 5599 5595 5591 5588 5584 5578 5570 5564 5558 5553 5549 5545 5541 5538 5535 5533 5532 5531 5529 5525 5522 5521
5659 5656 5652 5649 5646 5643 5641 5638 5635 5633 5630 5627 5624 5622 5620 5617 5613 5610 5606 5603 5598 5593 5590 5586 5582 5575 5568 5561 5556 5551 5547 5543 5539 5536 5533 5531 5530 5528 5525 5521 5518 5516
5654 5650 5646 5643 5641 5639 5636 5632 5629 5627 5624 5621 5619 5618 5616 5613 5610 5606 5602 5599 5595 5591 5587 5583 5579 5573 5565 5558 5554 5549 5545 5542 5537 5534 5531 5529 5527 5526 5523 5517 5513 5511